User: anonymous   Login
Location: Oshawa
(43.9000°N, 78.8670°W)
Time: 15:40:16
(UTC-05:00)
Language:

Explorer 11/Cluster Stage 4 - Orbit

View from above orbital plane
View from above orbital plane
View from above satellite
View from above satellite

Ground track
Ground track

The orbit data is extracted from the following two-line orbital elements,

1   107U 61013A   17050.78599438 +.00001128 +00000-0 +13278-3 0  9991
2   107 028.7867 192.4336 0549551 162.7299 199.2782 14.08195120794954
Epoch (UTC): 19 February 2017 18:51:49
Eccentricity: 0.0549551
inclination: 28.7867°
perigee height: 467 km
apogee height: 1263 km
right ascension of ascending node: 192.4336°
argument of perigee: 162.7299°
revolutions per day: 14.08195120
mean anomaly at epoch: 199.2782°
orbit number at epoch: 79495

The dashed part of the orbit path shows where the satellite is in the earth's shadow,  

DLR